This is the latest recevied weather packets stored in our database for station/object N8VDS-10. If no packets are shown the sender has not sent any weather packets the latest 10 day(s).
| Time | Temp. | Humidity | Pressure | Rain* | Wind** | Luminosity | Snow |
|---|---|---|---|---|---|---|---|
| 1777299854 | 16.67° C | 51% | 1022.1 hPa | 0 mm | - | 509 W/m² | - |
| 1777299552 | 15.56° C | 54% | 1022.2 hPa | 0 mm | - | 504 W/m² | - |
| 1777299250 | 15.56° C | 55% | 1022.4 hPa | 0 mm | - | 542 W/m² | - |
| 1777298946 | 15.56° C | 55% | 1022.6 hPa | 0 mm | - | 319 W/m² | - |
| 1777298644 | 15.56° C | 55% | 1022.6 hPa | 0 mm | - | 348 W/m² | - |
| 1777298340 | 15.56° C | 56% | 1022.7 hPa | 0 mm | - | 376 W/m² | - |
| 1777298036 | 15° C | 56% | 1022.8 hPa | 0 mm | - | 389 W/m² | - |
| 1777297731 | 15° C | 58% | 1022.6 hPa | 0 mm | - | 367 W/m² | - |
| 1777297430 | 15° C | 58% | 1022.8 hPa | 0 mm | - | 304 W/m² | - |
| 1777297126 | 14.44° C | 59% | 1022.6 hPa | 0 mm | - | 353 W/m² | - |
| 1777296823 | 13.89° C | 61% | 1023 hPa | 0 mm | - | 311 W/m² | - |
| 1777296518 | 13.89° C | 61% | 1023 hPa | 0 mm | - | 287 W/m² | - |
| 1777296215 | 14.44° C | 61% | 1023 hPa | 0 mm | - | 253 W/m² | - |
| 1777295911 | 13.33° C | 63% | 1022.9 hPa | 0 mm | - | 328 W/m² | - |
| 1777295608 | 13.33° C | 63% | 1022.9 hPa | 0 mm | - | 292 W/m² | - |
| 1777295306 | 13.33° C | 64% | 1022.8 hPa | 0 mm | - | 224 W/m² | - |
| 1777295004 | 12.78° C | 67% | 1023.1 hPa | 0 mm | - | 226 W/m² | - |
| 1777294700 | 12.78° C | 67% | 1023.1 hPa | 0 mm | - | 120 W/m² | - |
| 1777294396 | 12.78° C | 67% | 1023.2 hPa | 0 mm | - | 118 W/m² | - |
| 1777294093 | 12.22° C | 68% | 1023.3 hPa | 0 mm | - | 109 W/m² | - |
| 1777293790 | 12.22° C | 68% | 1022.9 hPa | 0 mm | - | 212 W/m² | - |
| 1777293490 | 11.67° C | 70% | 1023.1 hPa | 0 mm | - | 98 W/m² | - |
| 1777293186 | 11.67° C | 71% | 1023.1 hPa | 0 mm | - | 166 W/m² | - |
| 1777292885 | 11.67° C | 71% | 1023.3 hPa | 0 mm | - | 154 W/m² | - |
| 1777292581 | 11.11° C | 72% | 1023.5 hPa | 0 mm | - | 141 W/m² | - |
* Rain latest hour (hover to see other rain measurements)
** Current wind speed in m/s (hover to see current wind gust speed)